OpenBCM V1.08-5-g2f4a (Linux)

Packet Radio Mailbox

IZ3LSV

[San Dona' di P. JN]

 Login: GUEST





  
I0OJJ  > KEPS     14.08.25 01:32l 323 Lines 15290 Bytes #96 (0) @ AMSAT
BID : ORB25226.1
Read: GUEST
Subj: 2Line Orbital Elements 25226.AMSAT
Path: IZ3LSV<IK6IHL<IK7NXU<HB9ON<DK0WUE<K7EK<VE3CGR<VE3TOK<LU9DCE<EA2RCF<
      I0OJJ
Sent: 250814/0025z @:I0OJJ.ITA.EU [Rome] obcm1.08-10-g596e
From: I0OJJ @ I0OJJ.ITA.EU (Gustavo)
To:   KEPS @ AMSAT
X-Info: This message was generated automatically


QST de W1STR

AMSAT Orbital Elements for Amateur Satellites in TLE Format
>From Orbital Analysis Office
New England Sci-Tech STEM Education Center
Natick, MA August 14, 2025
To all radio amateurs


These element sets describe the orbits of various satellites 
in use by the amateur radio community. For details see:
www.amsat.org/keplerian-elements-formats/

A daily update of element sets is available at:
www.amsat.org/tle/daily-bulletin.txt
or without bulletin text:
www.amsat.org/tle/dailytle.txt


AO-07
1 07530U 74089B   25225.61298611 -.00000044  00000-0  12196-4 0  9995
2 07530 101.9960 230.5736 0012272   0.0851 112.6119 12.53690781321972
UO-11
1 14781U 84021B   25225.49661279  .00001239  00000-0  13564-3 0  9993
2 14781  97.7599 190.6054 0009234 116.7422 243.4742 14.89547589211308
AO-27
1 22825U 93061C   25225.39282408  .00000098  00000-0  54703-4 0  9990
2 22825  98.7322 287.2576 0007277 284.9413  75.0963 14.30817286662984
FO-29
1 24278U 96046B   25225.59390946 -.00000020  00000-0  14416-4 0  9992
2 24278  98.5658 110.9088 0350013 173.9922 186.5586 13.53251772431562
NOAA-15
1 25338U 98030A   25225.59983937  .00000150  00000-0  79358-4 0  9992
2 25338  98.5336 249.1601 0010614 162.6604 197.4942 14.27010917417423
GO-32
1 25397U 98043D   25225.53103028  .00000060  00000-0  46201-4 0  9991
2 25397  98.9760 206.0226 0002024  52.0986 308.0375 14.24328930407534
ISS
1 25544U 98067A   25225.50548281  .00008916  00000-0  16120-3 0  9996
2 25544  51.6354  22.9643 0001265 189.2848 170.8118 15.50495894524058
NO-44
1 26931U 01043C   25225.61145178  .00000133  00000-0  80894-4 0  9998
2 26931  67.0524 319.6965 0006669 276.3286  83.7056 14.31761670246419
SO-50
1 27607U 02058C   25225.61638056  .00000981  00000-0  13853-3 0  9999
2 27607  64.5543 359.7543 0063183 320.1030  39.5440 14.81780923218860
CO-55
1 27844U 03031E   25225.53312403  .00000278  00000-0  14012-3 0  9997
2 27844  98.6775 232.9726 0009713   6.7240 353.4068 14.24039388147888
CO-57
1 27848U 03031J   25225.58230590  .00000230  00000-0  12049-3 0  9998
2 27848  98.6805 232.9776 0009962  23.6225 336.5409 14.23368052147612
RS-22
1 27939U 03042A   25225.57066109  .00001089  00000-0  17975-3 0  9999
2 27939  98.3339  36.6174 0011824 158.4479 274.2429 14.72487363170269
CO-58
1 28895U 05043F   25225.33834650  .00001653  00000-0  27610-3 0  9996
2 28895  98.2582  10.5343 0015680 101.2946 259.0023 14.71205221 56464
CO-65
1 32785U 08021C   25225.57597307  .00004643  00000-0  33139-3 0  9994
2 32785  97.7912 197.2624 0009502   6.9079 353.2276 15.04999460938858
CO-66
1 32791U 08021J   25225.50891530  .00012479  00000-0  58060-3 0  9995
2 32791  97.7325 207.0747 0001731 336.9873  23.1283 15.20093526940358
RS-30
1 32953U 08025A   25225.58993207  .00000033  00000-0  16763-3 0  9998
2 32953  82.5044 186.7517 0017887 264.3590  95.5450 12.43167057781473
NOAA-19
1 33591U 09005A   25225.61498063  .00000151  00000-0  10460-3 0  9999
2 33591  98.9932 290.6723 0013922 175.7722 184.3570 14.13395818851038
SRMSAT
1 37841U 11058D   25225.44370564  .00000409  00000-0  78673-4 0  9995
2 37841  19.9715 122.0228 0011780  59.0951  96.4829 14.11452342714287
ZACUBE-1
1 39417U 13066B   25225.42662293  .00004819  00000-0  41429-3 0  9995
2 39417  97.7840 182.1331 0043388 192.5544 167.4600 14.97161304634616
Delfi-N3xt
1 39428U 13066N   25225.48939103  .00004577  00000-0  46049-3 0  9994
2 39428  97.8300 142.4337 0084650 145.6562 215.0169 14.89029562628737
GOMX-1
1 39430U 13066Q   25225.59100349  .00001536  00000-0  24391-3 0  9999
2 39430  97.6775  80.2526 0131730 345.0121  14.7197 14.67867041624764
LO-74
1 39440U 13066AA  25225.40959764  .00004413  00000-0  44378-3 0  9997
2 39440  97.8518 169.5457 0060487 327.6015  32.1494 14.90390364631097
AO-73
1 39444U 13066AE  25225.47070106  .00005725  00000-0  42133-3 0  9996
2 39444  97.7861 187.6820 0042055 164.3220 195.9318 15.03062089633338
DTUSAT-2
1 40030U 14033W   25225.49069485  .00007978  00000-0  50826-3 0  9994
2 40030  98.0598 200.4997 0008764 189.5733 170.5329 15.09011128606186
EO-80
1 40032U 14033Y   25225.44135228  .00006378  00000-0  40637-3 0  9992
2 40032  98.0488 200.0127 0010011 133.3896 226.8167 15.09085132606150
LILACSAT-2
1 40908U 15049K   25225.54026412  .00011407  00000-0  28525-3 0  9998
2 40908  97.5042 247.5084 0006883 288.5753  71.4744 15.40268827548224
IO-86
1 40931U 15052B   25151.18580175  .00001241  00000-0  78118-4 0  9996
2 40931   6.0006  24.0987 0012733 338.8432  21.1169 14.78805930523159
Horyu-4
1 41340U 16012D   25225.56466948  .00025267  00000-0  61928-3 0  9997
2 41340  30.9969  54.1122 0007572  17.4804 342.6102 15.39469905522806
Lapan A3
1 41603U 16040E   25225.50802839  .00003117  00000-0  10876-3 0  9993
2 41603  97.1395 227.5894 0012152  45.6602 314.5634 15.30259377507719
CAS-2T
1 41847U 16066G   25225.48932925  .00000764  00000-0  11805-3 0  9996
2 41847  98.4169 299.3780 0345144 342.3148  16.6265 14.43649954460383
CAS-4B
1 42759U 17034B   25225.52043005  .00107783  00000-0  74985-3 0  9999
2 42759  43.0038 292.3414 0021571  24.1499 336.0376 15.72990878452798
CAS-4A
1 42761U 17034D   25225.55067924  .00122847  00000-0  77638-3 0  9997
2 42761  43.0073 288.4092 0022381  29.6402 330.5730 15.75122871452822
TechnoSat
1 42829U 17042E   25225.47047323  .00003816  00000-0  29382-3 0  9990
2 42829  97.3980  31.0884 0018155  63.0021 297.3056 15.02099204440461
AO-91
1 43017U 17073E   25225.60808145  .00006244  00000-0  31668-3 0  9994
2 43017  97.5147  94.7436 0168309 305.2429  53.3144 15.05745549418991
S-Net D
1 43186U 18014G   25225.61579891  .00005131  00000-0  29923-3 0  9996
2 43186  97.5543 127.8580 0009173  13.0840 347.0627 15.12372060412209
S-Net B
1 43187U 18014H   25225.62205131  .00004908  00000-0  28656-3 0  9994
2 43187  97.5549 127.8392 0009699   7.7616 352.3762 15.12351777412202
S-Net A
1 43188U 18014J   25225.61595924  .00005169  00000-0  30135-3 0  9991
2 43188  97.5557 127.9918 0009607   8.5722 351.5671 15.12377855412208
S-Net C
1 43189U 18014K   25225.62461407  .00004786  00000-0  27951-3 0  9997
2 43189  97.5572 128.0255 0010859 359.7524   0.3699 15.12348396410759
Ten-Koh
1 43677U 18084G   25225.47239345  .00002286  00000-0  18486-3 0  9999
2 43677  98.0843  40.2974 0008367  58.0724 302.1311 15.00837750369978
PO-101
1 43678U 18084H   25225.62912237  .00001913  00000-0  16489-3 0  9992
2 43678  98.1061  44.2582 0008808  75.8435 284.3765 14.98577583370121
QO-100
1 43700U 18090A   25225.54407760  .00000145  00000-0  00000-0 0  9991
2 43700   0.0174 103.1903 0001105  52.0268  28.6628  1.00271078 24593
MinXSS-2
1 43758U 18099A   25225.15757168  .00014554  00000-0  54259-3 0  9997
2 43758  97.4968 291.4652 0009855 287.9672  72.0493 15.27497014366829
AO-95
1 43770U 18099N   25225.12864314  .00008090  00000-0  39777-3 0  9996
2 43770  97.4861 282.5266 0009797 356.1857   3.9300 15.18250475366341
SNUSat 2
1 43782U 18099AA  25225.39981311  .00007476  00000-0  39851-3 0  9995
2 43782  97.4544 279.0100 0010101 290.8839  69.1312 15.15428880366313
SnugLite
1 43784U 18099AC  25225.40820483  .00010091  00000-0  49090-3 0  9994
2 43784  97.4357 278.7179 0001753 295.3589  64.7463 15.18591397366476
ITASat 1
1 43786U 18099AE  25225.54561191  .00005487  00000-0  30819-3 0  9991
2 43786  97.4513 278.4671 0013392 348.4588  11.6334 15.13647258366287
EAGLET 1
1 43790U 18099AJ  25225.39044556  .00003607  00000-0  22852-3 0  9990
2 43790  97.4709 278.0495 0010946 334.2661  25.8022 15.09527975365846
ESEO
1 43792U 18099AL  25225.59152444  .00001540  00000-0  11920-3 0  9998
2 43792  97.4447 270.6273 0010358 305.5072  54.5187 15.02828955365580
CSIM
1 43793U 18099AM  25221.21166546  .13619297  25930-5  68059-3 0  9999
2 43793  97.4554 304.9540 0017217 272.8328  87.1002 16.40904822367265
JO-97
1 43803U 18099AX  25225.10396396  .00011536  00000-0  50613-3 0  9992
2 43803  97.4614 283.6417 0005751 277.5812  82.4771 15.22108677366588
Suomi 100
1 43804U 18099AY  25225.42384581  .00009755  00000-0  46246-3 0  9998
2 43804  97.4674 283.0619 0010453 281.9538  78.0525 15.19453891366543
ISAT
1 43879U 18111D   25225.20221298  .00025196  00000-0  81159-3 0  9995
2 43879  97.5895 141.1045 0006757 347.0927  13.0140 15.32166004363581
UWE-4
1 43880U 18111E   25225.55913891  .00015322  00000-0  56898-3 0  9994
2 43880  97.5841 139.4707 0010649 354.3240   5.7876 15.27608310363548
Sparrow
1 43881U 18111F   25225.19467748  .00027292  00000-0  84154-3 0  9995
2 43881  97.6052 144.2359 0006964  33.1222 327.0455 15.33544407363689
Prox-1
1 44339U 19036A   25225.45712327  .00013660  00000-0  16835-2 0  9990
2 44339  23.9975 355.2745 0007946  87.9880 272.1527 14.81120569327642
Taurus 1
1 44530U 19059C   25225.55986722  .00005894  00000-0  10718-2 0  9995
2 44530  98.6139   8.0891 0009497 188.0302 172.0749 14.66505900313464
Duchifat 3
1 44854U 19089C   25225.52824195  .00061926  00000-0  98618-3 0  9993
2 44854  36.9407 300.6480 0005087 127.9988 232.1230 15.52179754313096
TO-108
1 44881U 19093C   25225.55429425  .00000794  00000-0  97482-4 0  9993
2 44881  97.7892 299.8391 0014244  24.1386 336.0494 14.85715256305729
FloripaSat 1
1 44885U 19093G   25225.50858202  .00004688  00000-0  39091-3 0  9998
2 44885  97.8135 313.2639 0009318 350.1163   9.9874 14.99063249306475
RS-44
1 44909U 19096E   25225.28803868  .00000024  00000-0  44175-4 0  9991
2 44909  82.5230 184.2896 0218042 144.0223 217.5783 12.79742436262962
UPMSat 2
1 46276U 20061E   25225.43799752  .00145347  00000-0  81211-3 0  9996
2 46276  97.2366 302.4180 0001521 202.9147 157.2053 15.78966188275660
